Location: *
(51.0333°S, 178.4667°E)
Time: 08:08:09
(UTC+00:00)

STARLINK-44 - Pass Details

Date: 15 November 2019
Orbit: 529 x 530 km, 53.0° (Epoch: 12 December)

Event Time Altitude Azimuth Distance (km) Brightness Sun altitude
Rises 08:16:05 0° 284° (WNW) 2,684 7.7 -6.2°
Reaches altitude 10° 08:18:18 10° 283° (WNW) 1,796 6.8 -6.4°
Maximum altitude 08:22:23 81° 197° (SSW) 552 3.7 -6.9°
Drops below altitude 10° 08:26:30 10° 107° (ESE) 1,804 6.0 -7.4°
Enters shadow 08:30:30 -6° 104° (ESE) 3,413 7.3 -7.9°
